FW7384 Weather Reports


Display with metric or nautical units.
time (UTC)temp
F
wind
direction
speed
MPH
gust
MPH
rain 1hr
in
rain 24hr
in
rain mn
in
humidity
%
barometer
mb
20260901192503 57 219 2.0 4.0 0.00 0.00 0.00 88 1012.0
20260901192003 57 218 2.0 4.0 0.00 0.00 0.00 88 1012.0
20260901191503 57 219 1.0 4.0 0.00 0.00 0.00 88 1012.2
20260901191214 57 226 1.0 3.0 0.00 0.00 0.00 87 1012.2
20260901190503 58 225 1.0 6.0 0.00 0.00 0.00 87 1012.3
20260901190214 58 220 1.0 6.0 0.00 0.00 0.00 86 1012.0
20260901185503 58 240 1.0 3.0 0.00 0.00 0.00 86 1012.0
20260901185003 58 250 1.0 4.0 0.00 0.00 0.00 86 1012.1
20260901184713 58 235 1.0 4.0 0.00 0.01 0.00 86 1012.1
20260901184214 58 233 1.0 4.0 0.00 0.03 0.00 85 1012.1
20260901183503 59 232 1.0 4.0 0.00 0.04 0.00 85 1011.8
20260901183004 59 212 2.0 4.0 0.00 0.04 0.00 85 1012.0
20260901182503 59 211 2.0 4.0 0.00 0.04 0.00 84 1011.9
20260901182003 59 232 2.0 4.0 0.00 0.04 0.00 84 1011.7
20260901181713 59 241 2.0 4.0 0.00 0.06 0.00 84 1011.6
20260901181003 60 226 2.0 6.0 0.00 0.06 0.00 84 1011.7
20260901180504 60 217 3.0 7.0 0.00 0.06 0.00 84 1011.6
20260901180214 60 212 3.0 7.0 0.00 0.06 0.00 85 1011.6
20260901175504 60 207 3.0 6.0 0.00 0.06 0.00 84 1011.5
20260901175004 60 208 3.0 6.0 0.00 0.06 0.00 85 1011.4
20260901174713 60 211 3.0 6.0 0.00 0.06 0.00 85 1011.4
20260901174003 61 216 2.0 6.0 0.00 0.06 0.00 84 1011.5
20260901173503 61 220 3.0 6.0 0.00 0.06 0.00 84 1011.3
20260901173003 61 214 3.0 7.0 0.00 0.06 0.00 84 1011.3
20260901172712 61 214 3.0 7.0 0.00 0.06 0.00 84 1011.4
20260901172004 61 209 3.0 5.0 0.00 0.06 0.00 83 1011.1
20260901171503 62 209 3.0 5.0 0.00 0.06 0.00 83 1011.4
20260901171003 62 211 3.0 6.0 0.00 0.06 0.00 83 1011.3
20260901170714 62 199 4.0 7.0 0.00 0.06 0.00 83 1011.2
20260901170213 62 199 3.0 7.0 0.00 0.06 0.00 83 1011.5
20260901165503 62 212 2.0 6.0 0.00 0.06 0.00 82 1011.3
20260901165213 62 214 2.0 6.0 0.00 0.06 0.00 81 1011.3
20260901164503 62 220 2.0 6.0 0.00 0.06 0.00 80 1011.2
20260901164003 62 226 2.0 6.0 0.00 0.06 0.00 78 1011.2
20260901163714 62 229 2.0 5.0 0.00 0.06 0.00 78 1011.1
20260901163213 63 221 2.0 5.0 0.00 0.06 0.00 77 1011.2
20260901162503 63 204 3.0 9.0 0.00 0.06 0.00 76 1011.2
20260901162003 63 202 3.0 9.0 0.00 0.06 0.00 75 1011.3
20260901161714 63 213 2.0 9.0 0.00 0.06 0.00 74 1011.3
20260901161003 63 225 1.0 4.0 0.00 0.06 0.00 75 1011.1
20260901160503 63 224 1.0 6.0 0.00 0.06 0.00 74 1011.1
20260901160003 63 235 2.0 9.0 0.00 0.06 0.00 74 1010.9
20260901155714 63 232 3.0 9.0 0.00 0.06 0.00 74 1011.1
20260901155003 64 216 4.0 9.0 0.00 0.06 0.00 73 1011.0
20260901154504 64 214 5.0 9.0 0.00 0.06 0.00 72 1010.9
20260901154003 64 211 4.0 8.0 0.00 0.06 0.00 71 1010.9
20260901153504 65 207 3.0 8.0 0.00 0.06 0.00 70 1010.9
20260901153004 65 220 3.0 7.0 0.00 0.06 0.00 73 1010.8
20260901152503 64 220 3.0 7.0 0.00 0.06 0.00 72 1010.9
20260901152213 64 206 3.0 11.0 0.00 0.06 0.00 73 1011.0
20260901151503 65 200 4.0 11.0 0.00 0.06 0.00 72 1010.8
20260901151003 64 221 3.0 8.0 0.00 0.06 0.00 73 1010.9
20260901150503 65 223 3.0 9.0 0.00 0.06 0.00 73 1011.0
20260901150004 65 233 2.0 9.0 0.00 0.06 0.00 72 1010.7
20260901145504 65 239 2.0 9.0 0.00 0.06 0.00 70 1011.0
20260901145004 65 238 3.0 6.0 0.00 0.06 0.00 71 1010.8
20260901144503 65 208 4.0 12.0 0.00 0.06 0.00 70 1010.8
20260901144003 65 198 4.0 12.0 0.00 0.06 0.00 69 1010.6
20260901143713 66 204 5.0 12.0 0.00 0.06 0.00 69 1010.8
20260901143214 66 213 4.0 11.0 0.00 0.06 0.00 70 1010.7
20260901142713 66 215 3.0 10.0 0.00 0.06 0.00 70 1010.6
20260901142003 67 210 4.0 10.0 0.00 0.06 0.00 69 1010.6
20260901141503 67 217 4.0 10.0 0.00 0.06 0.00 70 1010.8
20260901141003 66 211 4.0 10.0 0.00 0.06 0.00 70 1010.7
20260901140503 67 204 5.0 10.0 0.00 0.06 0.00 69 1010.6
20260901140003 67 210 4.0 10.0 0.00 0.06 0.00 68 1010.6
20260901135503 67 229 3.0 7.0 0.00 0.06 0.00 69 1010.9
20260901135003 67 240 3.0 7.0 0.00 0.06 0.00 68 1010.8
20260901134504 66 241 3.0 7.0 0.00 0.06 0.00 68 1010.8
20260901134214 68 241 3.0 7.0 0.00 0.06 0.00 68 1010.3
20260901133713 67 240 2.0 5.0 0.00 0.06 0.00 68 1010.8
20260901133003 67 226 3.0 7.0 0.00 0.06 0.00 68 1010.5
20260901132504 66 228 3.0 11.0 0.00 0.06 0.00 69 1010.6
20260901132003 66 215 4.0 11.0 0.00 0.06 0.00 69 1010.6
20260901131503 67 222 4.0 11.0 0.00 0.06 0.00 69 1010.8
20260901131003 66 238 4.0 9.0 0.00 0.06 0.00 69 1010.7
20260901130503 66 238 4.0 9.0 0.00 0.06 0.00 67 1010.7
20260901130214 67 230 4.0 8.0 0.00 0.06 0.00 69 1010.7
20260901125503 68 222 3.0 8.0 0.00 0.06 0.00 68 1010.6
20260901125003 67 231 3.0 6.0 0.00 0.06 0.00 70 1010.6
20260901124715 66 237 3.0 6.0 0.00 0.06 0.00 69 1010.6
20260901124214 67 218 4.0 6.0 0.00 0.06 0.00 68 1010.5
20260901123503 65 208 4.0 10.0 0.00 0.06 0.00 72 1010.6
20260901123003 66 212 3.0 10.0 0.00 0.06 0.00 69 1010.7
20260901122504 67 234 3.0 6.0 0.00 0.06 0.00 69 1010.6
20260901122003 67 247 3.0 6.0 0.00 0.06 0.00 69 1010.5
20260901121715 67 248 3.0 6.0 0.00 0.06 0.00 68 1010.5
20260901121213 66 241 3.0 6.0 0.00 0.06 0.00 68 1010.7
20260901120503 66 245 2.0 6.0 0.00 0.06 0.00 68 1010.6
20260901120004 67 223 3.0 7.0 0.00 0.06 0.00 72 1010.3
20260901115503 66 205 4.0 7.0 0.00 0.06 0.00 74 1010.5
20260901115003 65 195 3.0 7.0 0.00 0.06 0.00 73 1010.5
20260901114503 65 192 3.0 8.0 0.00 0.06 0.00 74 1010.2
20260901114213 64 209 3.0 8.0 0.00 0.06 0.00 76 1010.5
20260901113503 65 234 3.0 8.0 0.00 0.06 0.00 75 1010.3
20260901113004 64 222 3.0 6.0 0.00 0.06 0.00 77 1010.5
20260901112503 64 227 3.0 6.0 0.00 0.06 0.00 77 1010.2
20260901112003 64 245 2.0 4.0 0.00 0.06 0.00 78 1010.3
20260901111714 64 234 2.0 4.0 0.00 0.06 0.00 76 1010.3
20260901111213 64 232 2.0 6.0 0.00 0.06 0.00 78 1010.3
20260901110503 63 226 3.0 6.0 0.00 0.06 0.00 78 1010.3
20260901110003 63 218 2.0 5.0 0.00 0.06 0.00 79 1010.2
20260901105714 63 210 2.0 5.0 0.00 0.06 0.00 81 1010.2
20260901105003 63 232 2.0 4.0 0.00 0.06 0.00 80 1010.3
20260901104503 62 245 2.0 4.0 0.00 0.06 0.00 84 1010.1
20260901104213 62 270 2.0 4.0 0.00 0.06 0.00 85 1010.1
20260901103714 62 294 2.0 4.0 0.00 0.06 0.00 84 1010.0
20260901103003 63 276 1.0 3.0 0.00 0.06 0.00 84 1010.1
20260901102503 62 291 2.0 5.0 0.00 0.06 0.00 84 1010.1
20260901102003 62 307 3.0 5.0 0.00 0.06 0.00 85 1010.0
20260901101503 61 286 2.0 5.0 0.00 0.06 0.00 85 1010.0
20260901101003 62 226 1.0 3.0 0.00 0.06 0.00 85 1009.8
20260901100503 63 213 1.0 4.0 0.00 0.06 0.00 85 1009.7
20260901100003 63 212 2.0 4.0 0.00 0.06 0.00 83 1009.7
20260901095503 63 229 2.0 4.0 0.00 0.06 0.00 84 1009.8
20260901095004 63 248 1.0 4.0 0.00 0.06 0.00 84 1009.7
20260901094714 62 233 1.0 4.0 0.00 0.06 0.00 84 1009.8
20260901094003 63 211 2.0 5.0 0.00 0.06 0.00 86 1009.7
20260901093503 62 208 2.0 5.0 0.00 0.06 0.00 86 1009.7
20260901093003 63 208 2.0 5.0 0.00 0.06 0.00 85 1009.7
20260901092713 62 225 2.0 5.0 0.00 0.06 0.00 84 1009.6
20260901092003 61 212 2.0 5.0 0.00 0.06 0.00 86 1009.5
20260901091713 61 210 2.0 5.0 0.00 0.06 0.00 87 1009.6
20260901091214 60 229 2.0 4.0 0.00 0.06 0.00 90 1009.7
20260901090713 60 219 2.0 4.0 0.00 0.06 0.00 90 1009.6
20260901090003 61 200 1.0 4.0 0.00 0.06 0.00 91 1009.4
20260901085503 60 219 1.0 4.0 0.00 0.06 0.00 90 1009.3
20260901085004 60 242 1.0 4.0 0.00 0.06 0.00 91 1009.4
20260901084503 60 240 1.0 3.0 0.00 0.06 0.00 90 1009.4
20260901084214 60 237 1.0 3.0 0.00 0.06 0.00 91 1009.3
20260901083503 60 235 2.0 3.0 0.00 0.06 0.00 91 1009.2
20260901083214 60 244 1.0 4.0 0.00 0.06 0.00 90 1009.2
20260901082713 60 260 1.0 4.0 0.00 0.06 0.00 90 1009.1
20260901082004 60 235 1.0 4.0 0.00 0.06 0.00 90 1009.1
20260901081503 59 220 1.0 4.0 0.00 0.06 0.00 92 1009.0
20260901081003 59 250 2.0 4.0 0.00 0.06 0.00 93 1009.1
20260901080713 59 257 1.0 4.0 0.00 0.06 0.00 94 1009.1
20260901080214 59 266 2.0 3.0 0.00 0.06 0.00 93 1009.0
20260901075504 58 258 1.0 3.0 0.00 0.06 0.00 94 1009.0
20260901075214 59 254 1.0 3.0 0.00 0.06 0.00 95 1009.1
20260901074713 58 274 1.0 3.0 0.00 0.06 0.00 96 1009.2
20260901074003 58 256 1.0 3.0 0.00 0.06 0.00 96 1009.1
20260901073713 58 256 1.0 3.0 0.00 0.06 0.00 97 1009.1
20260901073003 59 262 1.0 2.0 0.00 0.06 0.00 98 1009.0
20260901072504 58 252 1.0 3.0 0.00 0.06 0.00 98 1009.1
20260901072214 58 230 1.0 3.0 0.00 0.06 0.00 98 1008.9
20260901071713 58 229 1.0 3.0 0.00 0.06 0.00 99 1008.8
20260901071003 58 234 0.0 2.0 0.00 0.06 0.00 99 1008.9
20260901070504 58 228 0.0 3.0 0.00 0.06 0.00 99 1008.9
20260901070003 58 226 1.0 4.0 0.00 0.06 0.00 99 1008.8
20260901065714 58 226 1.0 4.0 0.00 0.06 0.00 99 1008.7
20260901065213 57 226 2.0 4.0 0.00 0.06 0.00 99 1008.8
20260901064504 57 242 1.0 4.0 0.00 0.06 0.00 99 1008.6
20260901064003 57 233 0.0 2.0 0.00 0.06 0.00 99 1008.6
20260901063503 57 215 1.0 3.0 0.00 0.06 0.00 99 1008.6
20260901063003 57 215 1.0 4.0 0.00 0.06 0.00 99 1008.5
20260901062503 57 214 1.0 5.0 0.00 0.06 0.00 99 1008.4
20260901062003 57 176 1.0 5.0 0.00 0.06 0.00 99 1008.4
20260901061714 57 158 1.0 5.0 0.00 0.06 0.00 99 1008.3
20260901061213 57 214 1.0 4.0 0.00 0.06 0.00 99 1008.5
20260901060503 57 192 1.0 4.0 0.00 0.06 0.00 99 1008.3
20260901060213 57 199 1.0 4.0 0.00 0.06 0.00 99 1008.3
20260901055714 57 189 2.0 4.0 0.00 0.06 0.00 99 1008.1
20260901055003 57 186 2.0 5.0 0.00 0.06 0.00 99 1008.3
20260901054504 57 185 1.0 5.0 0.00 0.06 0.00 99 1008.1
20260901054003 57 211 1.0 5.0 0.00 0.06 0.00 99 1008.4
20260901053714 57 224 1.0 5.0 0.00 0.06 0.00 99 1008.2
20260901053213 56 231 1.0 3.0 0.00 0.06 0.00 99 1008.2
20260901052503 56 219 2.0 5.0 0.00 0.06 0.00 99 1008.0
20260901052004 56 195 3.0 5.0 0.00 0.06 0.00 99 1008.1
20260901051503 56 170 2.0 5.0 0.00 0.06 0.00 99 1008.0
20260901051213 56 179 2.0 5.0 0.00 0.06 0.00 99 1008.2
20260901050714 56 206 1.0 4.0 0.00 0.06 0.00 99 1008.0
20260901050213 56 220 1.0 3.0 0.00 0.06 0.00 99 1008.0
20260901045504 56 186 1.0 3.0 0.00 0.06 0.00 99 1008.0
20260901045003 56 178 1.0 4.0 0.00 0.06 0.00 99 1007.9
20260901044506 56 172 1.0 4.0 0.00 0.06 0.00 99 1008.0
20260901044214 56 159 1.0 4.0 0.00 0.06 0.00 99 1008.0
20260901043503 56 151 2.0 5.0 0.00 0.06 0.00 99 1008.1
20260901043004 56 175 2.0 5.0 0.00 0.06 0.00 99 1008.0
20260901042714 56 175 2.0 5.0 0.00 0.06 0.00 99 1007.9
20260901042212 56 188 1.0 4.0 0.00 0.06 0.00 99 1008.0
20260901041713 56 209 1.0 3.0 0.00 0.06 0.00 99 1007.8
20260901041003 56 210 0.0 2.0 0.00 0.06 0.00 99 1008.0
20260901040503 56 209 0.0 1.0 0.00 0.06 0.00 99 1008.0
20260901040214 56 200 0.0 1.0 0.00 0.06 0.00 99 1007.9
20260901035503 56 0 0.0 0.0 0.00 0.06 0.00 99 1007.8
20260901035004 56 176 0.0 1.0 0.00 0.06 0.00 99 1007.9
20260901034713 56 198 0.0 2.0 0.00 0.06 0.00 99 1007.9
20260901034003 56 181 1.0 3.0 0.00 0.06 0.00 99 1007.8
20260901033503 56 195 2.0 3.0 0.00 0.06 0.00 99 1007.7
20260901033003 56 190 2.0 4.0 0.00 0.06 0.00 99 1007.9
20260901032503 56 189 2.0 4.0 0.00 0.06 0.00 99 1007.9
20260901032214 56 181 2.0 4.0 0.00 0.06 0.00 99 1007.9
20260901031504 56 170 2.0 4.0 0.00 0.06 0.00 99 1007.9
20260901031214 56 178 1.0 4.0 0.00 0.06 0.00 99 1007.7
20260901030713 56 194 0.0 2.0 0.00 0.06 0.00 99 1007.7
20260901030003 57 208 0.0 2.0 0.00 0.06 0.00 99 1007.8
20260901025503 57 212 0.0 2.0 0.00 0.06 0.00 99 1007.7
20260901025004 57 207 0.0 2.0 0.00 0.06 0.00 99 1007.7
20260901024713 57 199 0.0 3.0 0.00 0.06 0.00 99 1007.8
20260901024214 56 173 1.0 3.0 0.00 0.06 0.00 99 1007.6
20260901023713 57 167 1.0 3.0 0.00 0.06 0.00 99 1007.6
20260901023214 57 184 1.0 3.0 0.00 0.06 0.00 99 1007.9
20260901022503 56 189 1.0 2.0 0.00 0.06 0.00 99 1007.6
20260901022214 56 184 0.0 2.0 0.00 0.06 0.00 99 1007.7
20260901021503 56 164 0.0 2.0 0.00 0.06 0.00 99 1007.6
20260901021003 56 166 0.0 2.0 0.00 0.06 0.00 99 1007.9
20260901020503 56 174 1.0 2.0 0.00 0.06 0.00 99 1007.6
20260901020003 57 173 1.0 2.0 0.00 0.06 0.00 99 1007.5
20260901015503 57 180 1.0 3.0 0.00 0.06 0.00 99 1007.6
20260901015004 57 189 1.0 3.0 0.00 0.06 0.00 99 1007.6
20260901014503 57 192 2.0 4.0 0.00 0.06 0.00 99 1007.7
20260901014003 57 186 1.0 4.0 0.00 0.06 0.00 99 1007.6
20260901013712 57 186 1.0 4.0 0.00 0.06 0.00 99 1007.6
20260901013213 57 195 1.0 2.0 0.00 0.06 0.00 99 1007.4
20260901012503 57 209 1.0 2.0 0.00 0.06 0.00 99 1007.4
20260901012004 57 202 1.0 3.0 0.00 0.06 0.00 99 1007.5
20260901011503 57 181 1.0 3.0 0.00 0.06 0.00 99 1007.4
20260901011003 57 177 1.0 3.0 0.00 0.06 0.00 99 1007.4
20260901010714 57 189 1.0 3.0 0.00 0.06 0.00 99 1007.5
20260901010003 57 194 1.0 2.0 0.00 0.06 0.00 99 1007.5
20260901005714 57 191 1.0 2.0 0.00 0.06 0.00 99 1007.5
20260901005003 57 214 1.0 3.0 0.00 0.06 0.00 99 1007.5
20260901004714 57 216 1.0 3.0 0.00 0.06 0.00 99 1007.4
20260901004003 57 193 2.0 3.0 0.00 0.06 0.00 99 1007.5
20260901003714 57 191 2.0 3.0 0.00 0.06 0.00 99 1007.6
20260901003213 57 192 2.0 4.0 0.00 0.06 0.00 99 1007.5
20260901002714 57 183 2.0 4.0 0.00 0.06 0.00 99 1007.5
20260901002003 57 174 2.0 4.0 0.00 0.06 0.00 99 1007.5
20260901001503 57 185 1.0 4.0 0.00 0.06 0.00 99 1007.5
20260901001213 57 189 1.0 3.0 0.00 0.06 0.00 99 1007.4
20260901000714 57 194 1.0 3.0 0.00 0.06 0.00 99 1007.4
20260901000004 57 193 1.0 4.0 0.00 0.06 0.00 99 1007.5
20260831235503 57 182 1.0 4.0 0.00 0.06 0.00 99 1007.6
20260831235003 57 190 1.0 2.0 0.00 0.06 0.00 99 1007.5
20260831234714 57 202 1.0 2.0 0.00 0.06 0.00 99 1007.5
20260831234003 57 198 1.0 3.0 0.00 0.06 0.00 99 1007.4
20260831233504 57 191 2.0 3.0 0.00 0.06 0.00 99 1007.6
20260831233003 57 197 2.0 3.0 0.00 0.06 0.00 99 1007.6
20260831232503 57 196 2.0 4.0 0.00 0.06 0.00 99 1007.6
20260831232213 57 187 2.0 4.0 0.00 0.06 0.00 99 1007.7
20260831231503 57 187 2.0 4.0 0.00 0.06 0.00 99 1007.7
20260831231003 57 186 2.0 4.0 0.00 0.06 0.00 99 1007.7
20260831230714 57 187 1.0 3.0 0.00 0.06 0.00 99 1007.6
20260831230003 57 195 1.0 4.0 0.00 0.06 0.00 99 1007.7
20260831225503 57 182 2.0 4.0 0.00 0.06 0.00 99 1007.7
20260831225003 57 177 2.0 4.0 0.00 0.06 0.00 99 1007.6
20260831224503 57 180 2.0 4.0 0.00 0.06 0.00 99 1007.7
20260831224003 57 189 3.0 6.0 0.00 0.06 0.00 99 1007.6
20260831223504 57 193 3.0 6.0 0.00 0.06 0.00 99 1007.7
20260831223003 57 181 3.0 7.0 0.00 0.06 0.00 99 1007.8
20260831222713 57 179 3.0 7.0 0.00 0.06 0.00 99 1007.8
20260831222003 57 176 2.0 4.0 0.00 0.06 0.00 99 1007.6
20260831221713 57 174 2.0 4.0 0.00 0.06 0.00 99 1007.7
20260831221003 57 173 2.0 3.0 0.00 0.06 0.00 99 1007.8
20260831220713 57 179 2.0 4.0 0.00 0.06 0.00 99 1007.7
20260831220214 57 183 2.0 4.0 0.00 0.06 0.00 99 1007.6
20260831215713 56 187 2.0 4.0 0.00 0.06 0.06 99 1007.8
20260831215003 56 168 2.0 4.0 0.00 0.06 0.06 99 1007.8
20260831214214 56 166 1.0 4.0 0.00 0.06 0.06 99 1007.6
20260831213503 56 172 1.0 3.0 0.00 0.06 0.06 98 1007.6
20260831213004 56 159 0.0 1.0 0.00 0.06 0.06 98 1007.5
20260831212503 56 142 0.0 2.0 0.00 0.06 0.06 98 1007.5
20260831212004 56 126 0.0 2.0 0.00 0.06 0.06 98 1007.2
20260831211713 56 116 0.0 2.0 0.00 0.06 0.06 98 1007.6
20260831211003 56 127 0.0 3.0 0.00 0.06 0.06 98 1007.3
20260831210713 56 136 1.0 3.0 0.00 0.06 0.06 98 1007.3
20260831210214 56 141 1.0 3.0 0.00 0.06 0.06 98 1007.2
20260831205503 56 147 0.0 4.0 0.00 0.06 0.06 98 1007.2
20260831205214 56 141 1.0 4.0 0.00 0.06 0.06 98 1007.3
20260831204503 56 167 2.0 4.0 0.00 0.06 0.06 98 1007.4
20260831204004 56 173 1.0 3.0 0.00 0.06 0.06 98 1007.4
20260831203503 56 160 1.0 3.0 0.00 0.06 0.06 98 1007.4
20260831203214 56 149 1.0 3.0 0.00 0.06 0.06 98 1007.6
20260831202503 56 159 1.0 3.0 0.00 0.06 0.06 97 1007.4
20260831202003 56 161 1.0 3.0 0.00 0.06 0.06 97 1007.2
20260831201503 56 170 1.0 4.0 0.00 0.06 0.06 97 1007.3
20260831201003 56 162 1.0 4.0 0.00 0.06 0.06 97 1007.3
20260831200504 56 151 1.0 4.0 0.00 0.06 0.06 97 1007.4
20260831200003 56 160 1.0 4.0 0.00 0.06 0.06 97 1007.3
20260831195714 56 154 1.0 5.0 0.00 0.06 0.06 97 1007.3
20260831195213 56 143 1.0 5.0 0.00 0.06 0.06 97 1007.2
20260831194504 56 169 1.0 5.0 0.02 0.06 0.06 97 1007.3
20260831194003 56 180 2.0 5.0 0.03 0.06 0.06 96 1007.3
20260831193714 56 183 2.0 5.0 0.03 0.06 0.06 96 1007.4
20260831193003 56 167 3.0 5.0 0.03 0.06 0.06 96 1007.3